EW2281 Weather Reports


Display with metric or nautical units.
time (UTC)temp
F
wind
direction
speed
MPH
gust
MPH
rain 1hr
in
rain 24hr
in
rain mn
in
humidity
%
barometer
mb
20260502190539 48 295 0.0 4.0 0.00 0.17 0.08 64 968.6
20260502185820 48 295 1.0 4.0 0.00 0.17 0.08 63 968.7
20260502185321 47 15 0.0 2.0 0.00 0.17 0.08 65 968.8
20260502184821 47 30 0.0 2.0 0.00 0.17 0.08 67 968.9
20260502184321 47 288 1.0 3.0 0.00 0.17 0.08 65 968.9
20260502183821 47 349 1.0 4.0 0.00 0.17 0.08 68 969.0
20260502183322 47 292 1.0 5.0 0.00 0.17 0.08 64 969.0
20260502182819 47 312 1.0 6.0 0.00 0.17 0.08 64 969.0
20260502182319 47 343 1.0 6.0 0.00 0.17 0.08 63 969.1
20260502181820 48 271 0.0 1.0 0.00 0.17 0.08 62 969.0
20260502181319 48 313 0.0 2.0 0.00 0.17 0.08 61 969.0
20260502180817 48 290 0.0 3.0 0.00 0.17 0.08 60 968.9
20260502180318 48 344 1.0 3.0 0.00 0.17 0.08 62 968.9
20260502164226 49 325 1.0 9.0 0.00 0.17 0.08 62 969.0
20260502163724 49 299 1.0 9.0 0.00 0.17 0.08 60 969.1
20260502163224 49 300 1.0 3.0 0.00 0.17 0.08 62 969.1
20260502162724 48 296 0.0 3.0 0.00 0.17 0.08 61 969.1
20260502162224 48 209 1.0 7.0 0.00 0.17 0.08 62 969.2
20260502161722 48 279 1.0 7.0 0.00 0.17 0.08 62 969.3
20260502161224 48 279 1.0 5.0 0.00 0.17 0.08 61 969.3
20260502160720 48 163 1.0 5.0 0.00 0.17 0.08 61 969.3
20260502160220 48 306 1.0 5.0 0.00 0.17 0.08 59 969.2
20260502152211 50 301 0.0 4.0 0.00 0.17 0.08 62 969.3
20260502151711 49 298 0.0 1.0 0.00 0.17 0.08 61 969.4
20260502151204 49 31 0.0 2.0 0.00 0.17 0.08 61 969.3
20260502150659 48 19 1.0 8.0 0.00 0.17 0.08 62 969.3
20260502150153 48 31 2.0 8.0 0.00 0.17 0.08 64 969.4
20260502130435 41 26 0.0 5.0 0.00 0.17 0.08 87 969.7
20260502123359 39 220 0.0 1.0 0.00 0.17 0.08 93 970.0
20260502122853 39 220 0.0 3.0 0.00 0.17 0.08 94 969.9
20260502122347 39 298 0.0 3.0 0.00 0.17 0.08 95 970.0
20260502121841 38 297 0.0 2.0 0.00 0.17 0.08 96 970.0
20260502121824 38 296 0.0 2.0 0.00 0.17 0.08 97 970.1
20260502121055 37 120 0.0 1.0 0.00 0.17 0.08 98 970.1
20260502120556 37 284 0.0 1.0 0.00 0.17 0.08 98 970.0
20260502115830 37 282 0.0 1.0 0.00 0.17 0.08 99 970.1
20260502115329 36 225 0.0 0.0 0.00 0.17 0.08 99 970.1
20260502114827 36 188 0.0 0.0 0.00 0.17 0.08 99 970.0
20260502114326 36 224 0.0 0.0 0.00 0.17 0.08 99 969.9
20260502114048 36 224 0.0 0.0 0.00 0.17 0.08 99 969.8
20260502113325 35 224 0.0 0.0 0.00 0.17 0.08 99 969.8
20260502112824 35 224 0.0 0.0 0.00 0.17 0.08 99 969.8
20260502112322 35 200 0.0 0.0 0.00 0.17 0.08 99 969.8
20260502111819 35 288 0.0 0.0 0.00 0.17 0.08 99 969.8
20260502111321 35 288 0.0 0.0 0.00 0.17 0.08 99 969.8
20260502110819 35 288 0.0 0.0 0.00 0.17 0.08 99 969.8
20260502110318 35 288 0.0 0.0 0.00 0.17 0.08 99 969.8
20260502105819 35 288 0.0 0.0 0.00 0.17 0.08 99 969.8
20260502105539 35 288 0.0 0.0 0.00 0.17 0.08 98 969.8
20260502104816 34 288 0.0 0.0 0.00 0.17 0.08 98 969.8
20260502104320 34 288 0.0 0.0 0.00 0.17 0.08 98 969.7
20260502103812 34 288 0.0 0.0 0.00 0.17 0.08 98 969.9
20260502103312 34 288 0.0 0.0 0.00 0.17 0.08 98 970.0
20260502103253 34 288 0.0 0.0 0.00 0.17 0.08 98 970.0
20260502102311 34 288 0.0 0.0 0.00 0.17 0.08 98 969.9
20260502101809 34 288 0.0 0.0 0.00 0.17 0.08 98 969.9
20260502101309 35 288 0.0 1.0 0.00 0.17 0.08 98 969.8
20260502100808 35 288 0.0 1.0 0.00 0.17 0.08 98 969.6
20260502100530 35 310 0.0 1.0 0.00 0.17 0.08 98 969.6
20260502091305 36 297 0.0 0.0 0.00 0.17 0.08 96 969.1
20260502090803 36 297 0.0 0.0 0.00 0.17 0.08 96 969.1
20260502090305 37 297 0.0 0.0 0.00 0.17 0.08 96 969.0
20260502071506 39 304 0.0 0.0 0.00 0.17 0.08 96 968.6
20260502070746 39 304 0.0 0.0 0.00 0.17 0.08 96 968.5
20260502070246 39 304 0.0 0.0 0.00 0.17 0.08 96 968.4
20260502065740 40 304 0.0 0.0 0.00 0.17 0.08 96 968.4
20260502065238 40 304 0.0 0.0 0.00 0.17 0.08 96 968.3
20260502064737 40 304 0.0 0.0 0.00 0.17 0.08 96 968.3
20260502064457 40 304 0.0 0.0 0.00 0.17 0.08 96 968.3
20260502063736 40 304 0.0 0.0 0.00 0.17 0.08 95 968.4
20260502063235 40 304 0.0 0.0 0.00 0.17 0.08 95 968.5
20260502062731 40 304 0.0 0.0 0.01 0.17 0.08 94 968.5
20260502062233 40 304 0.0 0.0 0.01 0.17 0.08 94 968.4
20260502061959 40 304 0.0 1.0 0.02 0.17 0.08 94 968.5
20260502061229 40 304 0.0 2.0 0.02 0.17 0.08 93 968.6
20260502060955 41 340 1.0 3.0 0.03 0.17 0.08 93 968.6
20260502060226 41 11 1.0 8.0 0.03 0.17 0.08 93 968.6
20260502055726 41 344 2.0 9.0 0.03 0.17 0.08 93 968.5
20260502055226 41 277 3.0 9.0 0.03 0.17 0.08 95 968.5
20260502054725 42 9 2.0 9.0 0.03 0.17 0.08 96 968.5
20260502054443 42 21 1.0 7.0 0.03 0.17 0.08 96 968.5
20260502053723 42 313 2.0 10.0 0.03 0.17 0.08 95 968.4
20260502053224 42 319 2.0 10.0 0.03 0.17 0.08 95 968.3
20260502052727 43 333 2.0 7.0 0.02 0.16 0.07 96 968.3
20260502052220 43 347 2.0 7.0 0.03 0.16 0.07 96 968.2
20260502051718 43 11 1.0 5.0 0.02 0.15 0.06 97 968.1
20260502051219 43 14 0.0 3.0 0.03 0.15 0.06 97 968.1
20260502050715 44 205 0.0 0.0 0.03 0.14 0.05 98 968.1
20260502050213 44 205 0.0 0.0 0.04 0.14 0.05 98 968.1
20260502045713 44 205 0.0 0.0 0.05 0.14 0.05 97 968.1
20260502045210 44 205 0.0 0.0 0.05 0.14 0.05 97 968.0
20260502044709 43 205 0.0 0.0 0.05 0.14 0.05 97 968.1
20260502044436 44 205 0.0 0.0 0.05 0.14 0.05 97 968.1
20260502043709 44 205 0.0 0.0 0.05 0.14 0.05 96 968.0
20260502043205 44 205 0.0 0.0 0.05 0.14 0.05 96 967.8
20260502042705 44 205 0.0 2.0 0.05 0.14 0.05 96 967.8
20260502042209 44 206 0.0 2.0 0.04 0.13 0.04 97 967.7
20260502041706 44 301 0.0 1.0 0.04 0.13 0.04 97 967.6
20260502041206 44 28 0.0 2.0 0.03 0.12 0.03 97 967.6
20260502040706 44 269 0.0 2.0 0.02 0.11 0.03 97 967.7
20260502040205 45 299 0.0 2.0 0.01 0.10 0.01 98 967.8
20260502035933 45 297 0.0 0.0 0.00 0.09 0.09 98 967.6
20260502035206 45 28 0.0 0.0 0.00 0.09 0.09 98 967.5
20260502034927 45 28 0.0 0.0 0.00 0.09 0.09 97 967.4
20260502034154 45 28 0.0 0.0 0.00 0.09 0.09 98 967.2
20260502033648 45 28 0.0 0.0 0.00 0.09 0.09 98 967.1
20260502033142 45 28 0.0 0.0 0.00 0.09 0.09 98 967.1
20260502032636 45 28 0.0 0.0 0.00 0.09 0.09 98 967.3
20260502032351 45 28 0.0 0.0 0.00 0.09 0.09 98 967.4
20260502031624 45 28 0.0 0.0 0.00 0.09 0.09 98 967.4
20260502031118 45 29 0.0 0.0 0.00 0.09 0.09 98 967.6
20260502030612 45 29 0.0 0.0 0.00 0.09 0.09 98 967.5
20260502030106 45 29 0.0 0.0 0.00 0.09 0.09 98 967.5
20260502025818 45 29 0.0 0.0 0.00 0.09 0.09 98 967.5
20260502025054 46 29 0.0 0.0 0.00 0.09 0.09 98 967.3
20260502024548 46 29 0.0 0.0 0.00 0.09 0.09 98 967.3
20260502024042 46 29 0.0 0.0 0.00 0.09 0.09 98 966.9
20260502023536 46 24 0.0 0.0 0.00 0.09 0.09 98 967.3
20260502023030 46 24 0.0 0.0 0.00 0.09 0.09 98 967.4
20260502022524 46 24 0.0 0.0 0.00 0.09 0.09 98 967.3
20260502022017 46 24 0.0 0.0 0.00 0.09 0.09 98 967.2
20260502021512 46 24 0.0 0.0 0.00 0.09 0.09 98 967.1
20260502021006 46 24 0.0 0.0 0.00 0.09 0.09 98 967.2
20260502020459 46 24 0.0 0.0 0.00 0.09 0.09 98 967.2
20260502015954 46 24 0.0 0.0 0.00 0.09 0.09 98 967.2
20260502015717 46 24 0.0 0.0 0.00 0.09 0.09 98 967.1
20260502014942 46 24 0.0 0.0 0.00 0.09 0.09 98 967.2
20260502014705 46 24 0.0 0.0 0.00 0.09 0.09 98 967.3
20260502013930 46 24 0.0 0.0 0.00 0.09 0.09 98 967.2
20260502013423 46 24 0.0 0.0 0.00 0.09 0.09 97 967.2
20260502012919 46 24 0.0 0.0 0.01 0.09 0.09 97 967.4
20260502012412 46 24 0.0 0.0 0.01 0.09 0.09 97 967.4
20260502011906 46 24 0.0 0.0 0.01 0.09 0.09 97 967.3
20260502011400 46 24 0.0 0.0 0.01 0.09 0.09 97 967.2
20260502011119 47 24 0.0 0.0 0.01 0.09 0.09 98 967.0
20260502010348 47 24 0.0 0.0 0.02 0.09 0.09 97 967.0
20260502005842 47 24 0.0 0.0 0.02 0.09 0.09 97 967.0
20260502005336 47 24 0.0 0.0 0.02 0.09 0.09 97 967.0
20260502004830 47 24 0.0 0.0 0.02 0.09 0.09 97 967.0
20260502004324 47 24 0.0 0.0 0.03 0.09 0.09 97 966.9
20260502003818 47 24 0.0 0.0 0.03 0.09 0.09 97 967.0
20260502003312 47 24 0.0 0.0 0.03 0.09 0.09 97 966.9
20260502003037 47 24 0.0 0.0 0.02 0.08 0.08 97 966.9
20260502002300 47 24 0.0 0.0 0.02 0.08 0.08 97 966.8
20260502001753 47 24 0.0 0.0 0.02 0.08 0.08 97 966.7
20260502001505 47 24 0.0 0.0 0.02 0.08 0.08 97 966.7
20260502000742 47 24 0.0 0.0 0.02 0.08 0.08 97 966.6
20260502000236 47 24 0.0 0.0 0.01 0.07 0.07 96 966.8
20260501235729 47 25 0.0 0.0 0.01 0.07 0.07 96 966.6
20260501235223 47 25 0.0 0.0 0.01 0.07 0.07 96 966.4
20260501234952 47 25 0.0 0.0 0.00 0.06 0.06 96 966.6
20260501234211 47 25 0.0 0.0 0.00 0.06 0.06 95 966.4
20260501233705 47 25 0.0 0.0 0.00 0.06 0.06 95 966.4
20260501233200 47 25 0.0 0.0 0.00 0.06 0.06 95 966.6
20260501232700 48 25 0.0 0.0 0.00 0.06 0.06 95 966.4
20260501232418 48 25 0.0 0.0 0.00 0.06 0.06 94 966.5
20260501231656 48 25 0.0 0.0 0.00 0.06 0.06 94 966.4
20260501231154 48 25 0.0 0.0 0.00 0.06 0.06 94 966.5
20260501230914 48 25 0.0 0.0 0.00 0.06 0.06 94 966.4
20260501230152 48 25 0.0 0.0 0.00 0.06 0.06 94 966.4
20260501225651 48 25 0.0 0.0 0.00 0.06 0.06 94 966.3
20260501225149 48 25 0.0 0.0 0.00 0.06 0.06 94 966.3
20260501224648 48 25 0.0 0.0 0.00 0.06 0.06 94 966.3
20260501224146 48 25 0.0 0.0 0.00 0.06 0.06 94 966.3
20260501223645 48 26 0.0 0.0 0.00 0.06 0.06 94 966.2
20260501223143 48 22 0.0 0.0 0.01 0.06 0.06 93 966.2
20260501222642 49 38 0.0 0.0 0.01 0.06 0.06 93 966.0
20260501222144 49 59 0.0 0.0 0.01 0.06 0.06 93 966.0
20260501221641 49 59 0.0 0.0 0.01 0.06 0.06 94 965.9
20260501221401 49 55 0.0 0.0 0.01 0.06 0.06 94 966.0
20260501220642 49 36 0.0 0.0 0.01 0.06 0.06 94 966.1
20260501220405 50 37 0.0 0.0 0.01 0.06 0.06 95 966.2
20260501215639 49 40 0.0 0.0 0.01 0.06 0.06 95 966.1
20260501215143 49 67 0.0 0.0 0.01 0.06 0.06 94 966.2
20260501214640 49 76 0.0 0.0 0.02 0.06 0.06 94 966.3
20260501214356 49 76 0.0 0.0 0.02 0.06 0.06 93 966.3
20260501213901 49 55 0.0 0.0 0.02 0.06 0.06 93 966.3
20260501213137 49 148 0.0 0.0 0.01 0.05 0.05 94 966.4
20260501212900 49 67 0.0 0.0 0.02 0.05 0.05 94 966.4
20260501212136 49 72 0.0 0.0 0.02 0.05 0.05 94 966.4
20260501211634 49 71 0.0 0.0 0.03 0.05 0.05 94 966.5
20260501211133 49 80 0.0 0.0 0.03 0.05 0.05 93 966.5
20260501210634 49 88 0.0 0.0 0.04 0.05 0.05 93 966.4
20260501210131 49 97 0.0 0.0 0.05 0.05 0.05 93 966.5
20260501205635 49 109 0.0 0.0 0.05 0.05 0.05 93 966.4
20260501205132 49 48 0.0 1.0 0.05 0.05 0.05 94 966.4
20260501204629 49 24 0.0 1.0 0.04 0.04 0.04 93 966.4
20260501204129 49 18 0.0 0.0 0.04 0.04 0.04 93 966.5
20260501203630 48 18 0.0 0.0 0.04 0.04 0.04 92 966.5
20260501203612 49 18 0.0 0.0 0.04 0.04 0.04 92 966.4
20260501202627 49 18 0.0 1.0 0.03 0.03 0.03 92 966.5
20260501202124 49 18 0.0 1.0 0.03 0.03 0.03 91 966.5
20260501201622 49 17 0.0 4.0 0.02 0.02 0.02 89 966.5
20260501201123 49 28 1.0 5.0 0.02 0.02 0.02 88 966.3
20260501200624 50 22 1.0 5.0 0.01 0.01 0.01 86 966.3
20260501200124 50 27 1.0 5.0 0.00 0.00 0.00 83 966.2
20260501195624 51 313 1.0 6.0 0.00 0.00 0.00 80 966.2
20260501195118 52 57 2.0 7.0 0.00 0.00 0.00 79 966.1
20260501194619 53 24 2.0 7.0 0.00 0.00 0.00 76 966.2
20260501194349 53 327 1.0 4.0 0.00 0.00 0.00 72 966.2
20260501193620 53 295 1.0 4.0 0.00 0.00 0.00 72 966.2
20260501193120 54 277 1.0 6.0 0.00 0.00 0.00 69 966.1
20260501192620 55 221 1.0 6.0 0.00 0.00 0.00 66 966.1
20260501192119 56 257 1.0 7.0 0.00 0.00 0.00 63 965.9
20260501191847 56 225 1.0 7.0 0.00 0.00 0.00 59 965.9
20260501191120 57 196 1.0 6.0 0.00 0.01 0.00 59 965.8